Regional Weather Roundup
Issued by NWS

Home | Current Version | Previous Version | Graphics & Text | Print | Product List | Glossary On
Versions: 1 2 3 4 5 6 7 8 9 10 11 12 13 14 15 16 17 18 19 20 21 22 23 24 25 26 27 28 29 30 31 32 33 34 35 36 37 38 39 40 41 42 43 44 45 46 47 48 49 50
187
ASUS45 KTFX 281410
RWRMT
MONTANA REGIONAL WEATHER ROUNDUP
NATIONAL WEATHER SERVICE GREAT FALLS MT
800 AM MDT WED SEP 28 2016

NOTE: "FAIR" INDICATES FEW OR NO CLOUDS BELOW 12000 FEET WITH NO
SIGNIFICANT WEATHER AND/OR OBSTRUCTIONS TO VISIBILITY.

MTZ001>007-043-281500-
WEST OF THE DIVIDE

CITY           SKY/WX    TMP DP  RH WIND       PRES   REMARKS
KALISPELL      CLEAR     54  37  52 N13       30.14R
MISSOULA       CLEAR     50  44  80 NW3       30.15R
BUTTE          CLEAR     36  33  89 SE3       30.27R
MULLAN PASS    CLEAR     53  40  61 SE8G18    30.19R
ANACONDA         N/A     39  36  87 SW3       30.25S
DEER LODGE       N/A     37  36  93 CALM      30.26S
EUREKA           N/A     45  39  81 CALM      30.17R
HAMILTON         N/A     46  39  76 CALM      30.15R
LIBBY            N/A     41  41 100 CALM      30.14R
PLAINS           N/A     42  37  82 CALM      30.11S
RONAN            N/A     54  44  68 CALM      30.16R
$$

MTZ008-052>055-281500-
SOUTHWEST MONTANA

CITY           SKY/WX    TMP DP  RH WIND       PRES   REMARKS
BOZEMAN        CLEAR     42  38  85 SW3       30.28R
DILLON         CLEAR     42  35  76 SE3       30.27R
W YELLOWSTONE  CLOUDY    28  28 100 CALM      30.36S
ENNIS          CLEAR     39  36  87 NE5       30.33R
THREE FORKS      N/A     42  22  45 CALM      30.24R
TWIN BRIDGES     N/A     41  34  76 SE2       30.22R
$$

MTZ009-010-012-014-046-048-049-054-281500-
EAST SLOPES AND CENTRAL MONTANA

CITY           SKY/WX    TMP DP  RH WIND       PRES   REMARKS
CUT BANK       PTCLDY    39  34  82 CALM      30.32S
GREAT FALLS    CLEAR     39  36  89 W7        30.32R
MALMSTROM AFB  CLEAR     40  38  93 SW7       30.32S
HELENA         CLEAR     49  37  63 W8        30.28S
AUGUSTA        CLOUDY    45  37  73 N1        30.32S
BOWMANS CRNR     N/A     41  35  80 N6        30.30S
CHOTEAU          N/A     46  37  71 CALM      30.34S
CONRAD           N/A     37  37 100 W2        30.31S
FAIRFIELD        N/A     40  36  84 NW5       30.31S
POWER          PTSUNNY   40  35  84 N6        30.31S
RAYNESFORD       N/A     39  37  92 E3        30.31S
$$

MTZ011-013-016-021-045-047-050-051-281500-
NORTH CENTRAL MONTANA

CITY           SKY/WX    TMP DP  RH WIND       PRES   REMARKS
HAVRE          CLEAR     44  41  89 E6        30.33S
LEWISTOWN      CLEAR     42  40  92 SE5       30.32R
N BAR RANCH      N/A     45  41  87 CALM      30.35R
CHINOOK          N/A     45  41  87 CALM      30.34R
DENTON           N/A     45  41  87 SE1       30.28S
GEYSER         CLOUDY    45  37  73 N1        30.32S
GRASS RANGE      N/A     44  42  93 E1        30.30R
JUDITH GAP       N/A     41  39  93 NW8       30.32R
ROY              N/A     47  42  85 MISG      30.31R
STANFORD         N/A     40  39  95 E1        30.32R
WINIFRED         N/A     45  41  85 MISG      30.31S
$$

MTZ017>020-022>027-061-062-281500-
NORTHEAST MONTANA

CITY           SKY/WX    TMP DP  RH WIND       PRES   REMARKS
GLASGOW        CLEAR     49  44  83 CALM      30.28R
JORDAN           N/A     50  45  83 N6        30.28R
SIDNEY         SUNNY     52  47  83 N14       30.24R
WOLF POINT     CLEAR     52  46  80 CALM      30.27R
PLENTYWOOD       N/A     48  45  87 NW17G25   30.22S
POPLAR           N/A     52  45  76 CALM      30.26R
SCOBEY           N/A     47  40  76 NW8       30.24R
$$

MTZ028>42-056>058-281500-
SOUTHCENTRAL AND SOUTHEAST MONTANA

CITY           SKY/WX    TMP DP  RH WIND       PRES   REMARKS
BAKER          SUNNY     52  46  80 CALM      30.24R
BILLINGS       CLEAR     52  45  77 E5        30.30R
LIVINGSTON     CLEAR     42  40  92 CALM      30.31R
MILES CITY     CLEAR     52  47  83 NW6       30.25R
BIG TIMBER     CLEAR     50  45  81 NE5       30.35R
EKALAKA          N/A     53  43  69 SE1       30.20R
FORSYTH          N/A     50  50 100 W6        30.26R
HARLOWTON        N/A     44  41  89 NW5       30.32R
LAUREL           N/A     50  44  79 CALM      30.26R
ROUNDUP          N/A     50  42  73 NE6       30.20R
$$

REGIONAL REPORTS...DAKOTAS

CITY           SKY/WX    TMP DP  RH WIND       PRES   REMARKS
WILLISTON      SUNNY     51  47  86 N9        30.23R
MINOT          SUNNY     46  41  82 SE3       30.23R
DICKINSON      SUNNY     50  44  80 S3        30.20R
BEACH            N/A     48  48 100 N5        30.26R
CROSBY           N/A     45  45 100 NW8       30.25R
WATFORD CITY     N/A     48  48 100 NW3       30.22R
BISMARCK       SUNNY     41  38  89 NE6       30.24R
GRAND FORKS    MOSUNNY   47  43  86 N3        30.26R
FARGO          CLOUDY    49  45  86 NE5       30.25R
BUFFALO SD       N/A     58  46  64 N7        30.15R
RAPID CITY     SUNNY     60  44  55 W3        30.22R
$$

REGIONAL REPORTS...WYOMING/IDAHO/WASHINGTON

CITY           SKY/WX    TMP DP  RH WIND       PRES   REMARKS
GILLETTE       SUNNY     49  46  90 CALM      30.28R
SHERIDAN       CLEAR     48  42  80 SE3       30.28R
BUFFALO WY     CLEAR     60  39  45 W8        30.32R
CODY           CLEAR     48  41  76 CALM      30.32R
YELLOWSTONE LA   N/A     31  31 100 CALM      30.43R
IDAHO FALLS    CLOUDY    41  38  89 N6        30.22R
SALMON         CLEAR     37  36  93 CALM      30.21R
BOISE          CLEAR     56  39  53 SE5       30.04R
SPOKANE        PTCLDY    53  39  59 NE5       30.05R
$$

REGIONAL REPORTS...ALBERTA

CITY           SKY/WX    TMP DP  RH WIND       PRES   REMARKS
EDMONTON       PTCLDY    34  28  80 SW3       30.34S
CALGARY        CLOUDY    48  34  57 S10G17    30.32S
LETHBRIDGE     MOCLDY    48  39  71 NE5       30.32S
MEDICINE HAT   MOCLDY    48  39  71 NE7       30.34R
$$

REGIONAL REPORTS...SASKATCHEWAN

CITY           SKY/WX    TMP DP  RH WIND       PRES   REMARKS
SWIFT CURRENT  CLOUDY    45  41  87 NE7       30.33R
REGINA         PTCLDY    48  45  87 N15       30.27S
SASKATOON      PTCLDY    36  36 100 NW2       30.37R
ROCKGLEN         N/A     45  43  93 N16         N/A
$$




USA.gov is the U.S. government's official web portal to all federal, state and local government web resources and services.